SES-3

Last updated on Sun Apr 12 2026 00:02:52 GMT+0000 (Coordinated Universal Time)

1 37748U 11035A 26101.50032397 -.00000099 00000+0 00000+0 0 9995 2 37748 1.1529 83.7632 0003406 303.7895 249.2860 1.00272011 53920
UTC large
Height (km)
Speed (km/s)
/
Latitude / Longitude
Inclination (degrees)
Orbital Period (minutes)
Azimuth
Elevation
Range (km)
Doppler Factor

Next 0 passes for location: London (51.5072 / 0.1276)

Sorry there are no passes over London.
SES-3